Change the Weather History Date:

Saturday, November 12, 2011

  Actual Average Record
Temperature  
Mean Temperature 56 °F -  
Max Temperature 72 °F 63 °F 82 °F (2003)
Min Temperature 41 °F 45 °F 34 °F (2013)
Degree Days  
Heating Degree Days 8    
Growing Degree Days 6 (Base 50)    
Moisture  
Dew Point 48 °F    
Average Humidity 66    
Maximum Humidity 90    
Minimum Humidity 48    
Precipitation  
Precipitation 0.00 in - - ()
Sea Level Pressure  
Sea Level Pressure 30.03 in    
Wind  
Wind Speed 11 mph (South)    
Max Wind Speed 22 mph    
Max Gust Speed 25 mph    
Visibility 10 miles    
Events      
Averages and records for this station are not official NWS values.
T = Trace of Precipitation, MM = Missing Value Source: NWS Daily Summary

Daily Weather History Graph

Daily Weather History Graph

Search for Another Location

Airport or City:

Trip Planner

Search our weather history database for the weather conditions in past years. The results will help you decide how hot, cold, wet, or windy it might be!

Date:

Astronomy

Nov. 12, 2011 Rise Set
Actual Time 6:41 AM CST 5:15 PM CST
Civil Twilight 6:15 AM CST 5:41 PM CST
Nautical Twilight 5:45 AM CST 6:11 PM CST
Astronomical Twilight 5:16 AM CST 6:40 PM CST
Moon 6:38 PM CST (11/12) 8:18 AM CST (11/12)
Length of Visible Light 11h 26m
Length of Day
10h 34m
Full, 97% of the Moon is Illuminated
Nov 12
Full
Nov 18
Last Quarter
Nov 25
New
Dec 2
First Quarter
Dec 10
Full

Hourly Weather History & Observations

Time (CST) Temp. Windchill Dew Point Humidity Pressure Visibility Wind Dir Wind Speed Gust Speed Precip Events Conditions
12:55 AM 45.1 °F 40.3 °F 38.7 °F 78% 30.12 in 10.0 mi South 9.2 mph - N/A   Clear
1:55 AM 43.3 °F 38.6 °F 38.1 °F 82% 30.11 in 10.0 mi South 8.1 mph - N/A   Clear
2:55 AM 41.2 °F 36.6 °F 37.4 °F 86% 30.10 in 10.0 mi SSE 6.9 mph - N/A   Clear
3:55 AM 43.2 °F 40.5 °F 39.9 °F 88% 30.10 in 10.0 mi SSE 4.6 mph - N/A   Clear
4:55 AM 44.8 °F 39.4 °F 41.9 °F 90% 30.08 in 10.0 mi South 10.4 mph - N/A   Mostly Cloudy
5:55 AM 46.4 °F 41.5 °F 42.3 °F 85% 30.08 in 10.0 mi South 10.4 mph - N/A   Mostly Cloudy
6:55 AM 46.0 °F 41.4 °F 42.1 °F 86% 30.09 in 10.0 mi South 9.2 mph - N/A   Clear
7:55 AM 49.1 °F - 44.1 °F 83% 30.11 in 10.0 mi South 8.1 mph - N/A   Clear
8:55 AM 55.0 °F - 46.0 °F 72% 30.12 in 10.0 mi South 10.4 mph - N/A   Clear
9:55 AM 62.2 °F - 48.0 °F 60% 30.12 in 10.0 mi South 12.7 mph - N/A   Clear
10:55 AM 68.7 °F - 49.8 °F 51% 30.08 in 10.0 mi SW 19.6 mph 25.3 mph N/A   Clear
11:55 AM 68.5 °F - 50.5 °F 53% 30.06 in 10.0 mi SSW 15.0 mph 21.9 mph N/A   Clear
12:55 PM 71.1 °F - 51.1 °F 49% 30.03 in 10.0 mi SSW 19.6 mph 24.2 mph N/A   Scattered Clouds
1:55 PM 71.4 °F - 51.6 °F 50% 30.01 in 10.0 mi SSW 13.8 mph 19.6 mph N/A   Overcast
2:55 PM 71.8 °F - 51.4 °F 49% 29.97 in 10.0 mi South 21.9 mph - N/A   Scattered Clouds
3:55 PM 72.3 °F - 51.6 °F 48% 29.96 in 10.0 mi SSW 17.3 mph - N/A   Mostly Cloudy
4:55 PM 70.7 °F - 51.8 °F 51% 29.96 in 10.0 mi SSW 13.8 mph - N/A   Partly Cloudy
5:55 PM 68.4 °F - 51.6 °F 55% 29.95 in 10.0 mi South 16.1 mph - N/A   Mostly Cloudy
6:55 PM 68.2 °F - 51.8 °F 56% 29.96 in 10.0 mi South 15.0 mph - N/A   Overcast
7:55 PM 68.0 °F - 52.2 °F 57% 29.96 in 10.0 mi South 17.3 mph - N/A   Overcast
8:55 PM 66.9 °F - 52.5 °F 60% 29.96 in 10.0 mi South 16.1 mph - N/A   Overcast
9:55 PM 66.0 °F - 53.8 °F 65% 29.96 in 10.0 mi South 13.8 mph - N/A   Clear
10:55 PM 65.3 °F - 54.5 °F 68% 29.96 in 10.0 mi South 12.7 mph - N/A   Clear
11:55 PM 65.5 °F - 55.4 °F 70% 29.96 in 10.0 mi South 11.5 mph - N/A   Overcast